FW2168 Weather Reports


Display with metric or nautical units.
time (UTC)temp
F
wind
direction
speed
MPH
gust
MPH
rain 1hr
in
rain 24hr
in
rain mn
in
humidity
%
barometer
mb
20260504204523 81 319 12.0 21.0 0.00 0.00 0.00 33 1000.3
20260504203021 81 274 7.0 15.0 0.00 0.00 0.00 34 1000.3
20260504201520 81 167 8.0 18.0 0.00 0.00 0.00 34 1000.3
20260504200019 80 303 9.0 20.0 0.00 0.00 0.00 38 1000.4
20260504194520 80 246 8.0 17.0 0.00 0.00 0.00 37 1000.7
20260504193017 80 237 9.0 16.0 0.00 0.00 0.00 38 1000.7
20260504191512 80 255 8.0 14.0 0.00 0.00 0.00 43 1000.7
20260504190017 79 308 7.0 17.0 0.00 0.00 0.00 43 1000.9
20260504184526 79 257 9.0 15.0 0.00 0.00 0.00 43 1000.9
20260504183007 79 288 7.0 18.0 0.00 0.00 0.00 43 1001.1
20260504181505 78 302 7.0 12.0 0.00 0.00 0.00 49 1001.0
20260504180003 77 276 6.0 14.0 0.00 0.00 0.00 50 1001.2
20260504174600 77 256 5.0 13.0 0.00 0.00 0.00 57 1001.2
20260504173103 77 219 4.0 14.0 0.00 0.00 0.00 47 1001.2
20260504171555 76 252 5.0 11.0 0.00 0.00 0.00 53 1001.3
20260504081501 52 163 1.0 2.0 0.00 0.00 0.00 75 1004.7
20260504044534 56 171 0.0 0.0 0.00 0.00 0.00 64 1007.2
20260504043029 56 171 0.0 0.0 0.00 0.00 0.00 62 1007.3
20260504041528 59 171 0.0 0.0 0.00 0.00 0.00 61 1007.5
20260504040027 56 171 0.0 0.0 0.00 0.00 0.00 63 1007.6
20260504034525 58 186 0.0 0.0 0.00 0.00 0.00 58 1007.9
20260504033023 58 186 3.0 4.0 0.00 0.00 0.00 59 1008.1
20260504031523 61 345 0.0 0.0 0.00 0.00 0.00 50 1008.1
20260504030024 61 345 2.0 3.0 0.00 0.00 0.00 52 1008.2
20260504024531 62 355 3.0 5.0 0.00 0.00 0.00 50 1008.1
20260504023021 63 5 3.0 4.0 0.00 0.00 0.00 50 1008.0
20260504021522 62 253 0.0 1.0 0.00 0.00 0.00 49 1008.2
20260504020019 64 253 0.0 2.0 0.00 0.00 0.00 48 1008.4
20260504014517 65 253 0.0 3.0 0.00 0.00 0.00 46 1008.4
20260504013031 65 180 1.0 2.0 0.00 0.00 0.00 47 1008.4
20260504011518 64 174 2.0 3.0 0.00 0.00 0.00 52 1008.3
20260504010016 67 273 0.0 3.0 0.00 0.00 0.00 44 1008.5
20260504004515 67 299 2.0 4.0 0.00 0.00 0.00 45 1008.8
20260504003031 68 290 2.0 4.0 0.00 0.00 0.00 43 1008.7
20260504001514 68 293 2.0 6.0 0.00 0.00 0.00 41 1008.6
20260504000012 69 251 3.0 8.0 0.00 0.00 0.00 42 1009.0
20260503234511 70 306 3.0 5.0 0.00 0.00 0.00 42 1008.9
20260503233009 70 246 3.0 9.0 0.00 0.00 0.00 40 1009.0
20260503231509 70 273 4.0 9.0 0.00 0.00 0.00 43 1009.1
20260503230008 70 282 1.0 5.0 0.00 0.00 0.00 40 1009.0
20260503224514 71 299 5.0 10.0 0.00 0.00 0.00 43 1009.3
20260503223006 70 323 5.0 10.0 0.00 0.00 0.00 39 1009.1
20260503221507 71 298 3.0 7.0 0.00 0.00 0.00 42 1009.4
20260503220011 70 340 6.0 13.0 0.00 0.00 0.00 41 1009.2
20260503214502 72 298 6.0 11.0 0.00 0.00 0.00 39 1009.5
20260503213100 72 314 9.0 16.0 0.00 0.00 0.00 39 1009.7
20260503211605 71 277 7.0 13.0 0.00 0.00 0.00 37 1009.7
20260503211503 71 256 7.0 15.0 0.00 0.00 0.00 39 1009.7
20260503210058 72 290 5.0 10.0 0.00 0.00 0.00 42 1009.8